Location: Endfield
(51.6667°N, 0.0667°W)
Time: 13:20:04
(UTC+00:00)

Cosmos 1624 Rocket - Pass Details

Date: 19 May 2024
Orbit: 755 x 781 km, 74.0° (Epoch: 18 June)

Event Time Altitude Azimuth Distance (km) Brightness Sun altitude
Rises 21:13:14 0° 332° (NNW) 3,223 9.2 -9.9°
Reaches altitude 10° 21:15:38 10° 329° (NNW) 2,294 8.1 -10.1°
Maximum altitude 21:20:43 58° 251° (WSW) 879 4.4 -10.6°
Enters shadow 21:25:40 11° 174° (S) 2,236 5.9 -11.1°
